Location: Unspecified
(41.1850°N, 73.2650°W)
Time: 08:15:09
(UTC+00:00)

BlueWalker 3 - Pass Details

Date: 25 February 2026
Orbit: 451 x 458 km, 53.2° (Epoch: 6 March)

Event Time Altitude Azimuth Distance (km) Brightness Sun altitude
Exits shadow 09:21:02 21° 138° (SE) 1,085 3.9 -25.6°
Maximum altitude 09:21:21 21° 130° (SE) 1,077 4.0 -25.6°
Drops below altitude 10° 09:24:07 10° 80° (E) 1,596 5.5 -25.0°
Sets 09:26:36 0° 63° (ENE) 2,473 6.7 -24.6°
